Location: Prostejov
(49.4670°N, 17.1170°E)
Time: 09:19:24
(UTC+02:00)

ISS - Pass Details

Date: 26 May 2021
Orbit: 417 x 422 km, 51.6° (Epoch: 13 June)

Event Time Altitude Azimuth Distance (km) Brightness Sun altitude
Rises 21:25:11 0° 285° (WNW) 2,366 1.3 -6.1°
Reaches altitude 10° 21:27:17 10° 288° (WNW) 1,502 0.3 -6.4°
Maximum altitude 21:30:39 71° 13° (NNE) 447 -3.5 -6.8°
Drops below altitude 10° 21:34:01 10° 98° (E) 1,501 -1.4 -7.1°
Enters shadow 21:34:55 - 99° (E) 1,868 -1.0 -7.2°
